Anoka County, MN

12:37 PM CST on December 14, 2019 (GMT -0600)
Anoka County / Blaine Airport

Weather History for KANE - November, 2019

Change the Weather History Date:

Friday, November 22, 2019

  Actual Average Record
Temperature  
Mean Temperature 24 °F -  
Max Temperature 32 °F 35 °F 60 °F (2012)
Min Temperature 17 °F 22 °F 10 °F (2000)
Degree Days  
Heating Degree Days 40    
Moisture  
Dew Point 18 °F    
Average Humidity 81    
Maximum Humidity 93    
Minimum Humidity 60    
Precipitation  
Precipitation 0.00 in - - ()
Sea Level Pressure  
Sea Level Pressure 30.13 in    
Wind  
Wind Speed 5 mph (WSW)    
Max Wind Speed 10 mph    
Max Gust Speed -    
Visibility 10 miles    
Events      
Averages and records for this station are not official NWS values.
T = Trace of Precipitation, MM = Missing Value Source: NWS Daily Summary

Daily Weather History Graph

Daily Weather History Graph

Search for Another Location

Airport or City:

Astronomy

Nov. 22, 2019 Rise Set
Actual Time 7:20 AM CST 4:37 PM CST
Civil Twilight 6:47 AM CST 5:09 PM CST
Nautical Twilight 6:11 AM CST 5:46 PM CST
Astronomical Twilight 5:36 AM CST 6:21 PM CST
Moon 2:09 AM CST (11/22) 2:53 PM CST (11/22)
Length of Visible Light 10h 22m
Length of Day
9h 17m
Waning Crescent, 19% of the Moon is Illuminated
Nov 22
Waning Crescent
Nov 26
New
Dec 4
First Quarter
Dec 11
Full
Dec 18
Last Quarter

Hourly Weather History & Observations

Time (CST) Temp. Windchill Dew Point Humidity Pressure Visibility Wind Dir Wind Speed Gust Speed Precip Events Conditions
12:35 AM 24.8 °F 17.9 °F 15.8 °F 69% 30.21 in 10.0 mi North 5.8 mph - N/A   Overcast
12:55 AM 23.0 °F 17.0 °F 15.8 °F 74% 30.21 in 10.0 mi WNW 4.6 mph - N/A   Mostly Cloudy
1:15 AM 21.2 °F 14.9 °F 15.8 °F 80% 30.20 in 10.0 mi WNW 4.6 mph - N/A   Clear
1:35 AM 21.2 °F 14.9 °F 15.8 °F 80% 30.21 in 10.0 mi WNW 4.6 mph - N/A   Clear
1:55 AM 21.2 °F 13.6 °F 15.8 °F 80% 30.21 in 10.0 mi WNW 5.8 mph - N/A   Clear
2:15 AM 19.4 °F 12.8 °F 15.8 °F 86% 30.21 in 10.0 mi WNW 4.6 mph - N/A   Clear
2:35 AM 19.4 °F 14.3 °F 15.8 °F 86% 30.21 in 10.0 mi WNW 3.5 mph - N/A   Clear
2:56 AM 19.4 °F 14.3 °F 15.8 °F 86% 30.21 in 10.0 mi WNW 3.5 mph - N/A   Clear
3:15 AM 19.4 °F 14.3 °F 15.8 °F 86% 30.21 in 10.0 mi WNW 3.5 mph - N/A   Clear
3:35 AM 19.4 °F 14.3 °F 15.8 °F 86% 30.21 in 10.0 mi West 3.5 mph - N/A   Clear
3:55 AM 19.4 °F 14.3 °F 15.8 °F 86% 30.22 in 10.0 mi WNW 3.5 mph - N/A   Clear
4:35 AM 17.6 °F 10.7 °F 14.0 °F 86% 30.22 in 10.0 mi West 4.6 mph - N/A   Clear
4:56 AM 17.6 °F 10.7 °F 15.8 °F 93% 30.22 in 10.0 mi WNW 4.6 mph - N/A   Clear
5:16 AM 19.4 °F 14.3 °F 15.8 °F 86% 30.22 in 10.0 mi West 3.5 mph - N/A   Clear
5:35 AM 19.4 °F - 15.8 °F 86% 30.22 in 10.0 mi Calm Calm - N/A   Clear
5:55 AM 19.4 °F - 15.8 °F 86% 30.22 in 10.0 mi Calm Calm - N/A   Clear
6:15 AM 19.4 °F - 15.8 °F 86% 30.21 in 10.0 mi Calm Calm - N/A   Mostly Cloudy
6:36 AM 19.4 °F - 15.8 °F 86% 30.21 in 10.0 mi Calm Calm - N/A   Mostly Cloudy
6:59 AM 21.2 °F 14.9 °F 15.8 °F 80% 30.21 in 10.0 mi West 4.6 mph - N/A   Mostly Cloudy
7:45 AM 19.4 °F 12.8 °F 15.8 °F 86% 30.21 in 10.0 mi West 4.6 mph - N/A   Mostly Cloudy
8:45 AM 21.2 °F 13.6 °F 17.6 °F 86% 30.22 in 10.0 mi WSW 5.8 mph - N/A   Mostly Cloudy
9:45 AM 24.8 °F 16.1 °F 17.6 °F 74% 30.22 in 10.0 mi WSW 8.1 mph - N/A   Mostly Cloudy
10:20 AM 24.8 °F 16.9 °F 17.6 °F 74% 30.23 in 10.0 mi SW 6.9 mph - N/A   Mostly Cloudy
11:47 AM 26.6 °F 19.1 °F 19.4 °F 74% 30.18 in 10.0 mi SW 6.9 mph - N/A   Partly Cloudy
1:57 PM 30.2 °F 22.6 °F 19.4 °F 64% 30.12 in 10.0 mi SW 8.1 mph - N/A   Partly Cloudy
2:45 PM 32.0 °F 26.4 °F 19.4 °F 60% 30.11 in 10.0 mi SW 5.8 mph - N/A   Partly Cloudy
3:45 PM 30.2 °F 21.9 °F 19.4 °F 64% 30.10 in 10.0 mi South 9.2 mph - N/A   Partly Cloudy
4:50 PM 28.4 °F 22.2 °F 19.4 °F 69% 30.07 in 10.0 mi SSW 5.8 mph - N/A   Partly Cloudy
5:50 PM 26.6 °F 17.5 °F 19.4 °F 74% 30.05 in 10.0 mi SSW 9.2 mph - N/A   Partly Cloudy
6:45 PM 26.6 °F 18.2 °F 21.2 °F 80% 30.02 in 10.0 mi SSW 8.1 mph - N/A   Partly Cloudy
8:45 PM 24.8 °F 16.9 °F 19.4 °F 80% 29.96 in 10.0 mi South 6.9 mph - N/A   Clear
9:15 PM 26.6 °F 16.8 °F 23.0 °F 86% 29.96 in 10.0 mi SSW 10.4 mph - N/A   Clear
9:35 PM 26.6 °F 18.2 °F 23.0 °F 86% 29.95 in 10.0 mi SSW 8.1 mph - N/A   Clear
10:16 PM 26.6 °F 16.8 °F 23.0 °F 86% 29.92 in 10.0 mi SSW 10.4 mph - N/A   Clear
10:36 PM 26.6 °F 17.5 °F 24.8 °F 93% 29.91 in 10.0 mi SSW 9.2 mph - N/A   Clear
10:55 PM 28.4 °F 19.7 °F 24.8 °F 86% 29.90 in 10.0 mi SSW 9.2 mph - N/A   Clear
11:16 PM 28.4 °F 19.1 °F 24.8 °F 86% 29.89 in 10.0 mi SSW 10.4 mph - N/A   Clear
11:55 PM 28.4 °F 19.7 °F 23.0 °F 80% 29.87 in 10.0 mi SSW 9.2 mph - N/A   Clear